Wetterdaten: aktuell Montag, 13.07.2020 11:22
Datum Zeit Temp. 2m Temp. 5cm Feuchte 2m Luftdruck Regen Wind Richtung Richtung Taupunkt Windchill Windben
13.07.2020 11:22 21,4 C 23,9 C 46 % 1029,8 hPa 0,0 l/m 7,6 km/h (2 Bft) O 90 9,3 C 21,0 C 9,2 km/h (2 Bft)
13.07.2020 11:20 21,6 C 24,6 C 47 % 1029,8 hPa 0,0 l/m 7,6 km/h (2 Bft) O-SO 112 9,8 C 21,2 C 7,4 km/h (2 Bft)
13.07.2020 11:18 21,3 C 23,6 C 46 % 1029,8 hPa 0,0 l/m 7,6 km/h (2 Bft) S 180 9,2 C 20,9 C 11,4 km/h (2 Bft)
13.07.2020 11:16 21,4 C 23,2 C 46 % 1029,9 hPa 0,0 l/m 7,4 km/h (2 Bft) S-SO 157 9,3 C 21,0 C 17,7 km/h (3 Bft)
13.07.2020 11:14 21,6 C 23,0 C 47 % 1029,9 hPa 0,0 l/m 6,9 km/h (2 Bft) S 180 9,8 C 21,4 C 6,8 km/h (2 Bft)
13.07.2020 11:12 21,3 C 22,9 C 47 % 1029,9 hPa 0,0 l/m 6,8 km/h (2 Bft) O-NO 67 9,5 C 21,2 C 10,3 km/h (2 Bft)
13.07.2020 11:10 21,1 C 22,5 C 46 % 1029,9 hPa 0,0 l/m 6,6 km/h (2 Bft) O-SO 112 9,0 C 21,0 C 10,3 km/h (2 Bft)
13.07.2020 11:08 21,4 C 22,2 C 47 % 1029,9 hPa 0,0 l/m 6,6 km/h (2 Bft) O-NO 67 9,6 C 21,3 C 8,9 km/h (2 Bft)
13.07.2020 11:06 21,4 C 22,8 C 48 % 1029,9 hPa 0,0 l/m 7,1 km/h (2 Bft) O-SO 112 9,9 C 21,1 C 8,9 km/h (2 Bft)
13.07.2020 11:04 21,5 C 22,7 C 48 % 1029,9 hPa 0,0 l/m 6,6 km/h (2 Bft) S 180 10,0 C 21,4 C 8,4 km/h (2 Bft)
13.07.2020 11:02 21,4 C 21,8 C 49 % 1029,9 hPa 0,0 l/m 6,3 km/h (2 Bft) O-NO 67 10,2 C 21,4 C 5,0 km/h (1 Bft)
13.07.2020 11:00 21,1 C 21,8 C 48 % 1029,9 hPa 0,0 l/m 6,3 km/h (2 Bft) SO 135 9,7 C 21,1 C 14,8 km/h (3 Bft)
13.07.2020 10:58 21,4 C 23,0 C 49 % 1029,9 hPa 0,0 l/m 6,3 km/h (2 Bft) NO 45 10,2 C 21,4 C 14,8 km/h (3 Bft)
13.07.2020 10:56 21,2 C 23,1 C 50 % 1029,9 hPa 0,0 l/m 6,0 km/h (2 Bft) O-SO 112 10,4 C 21,2 C 8,0 km/h (2 Bft)
13.07.2020 10:54 21,1 C 23,2 C 51 % 1029,9 hPa 0,0 l/m 6,0 km/h (2 Bft) S-SO 157 10,6 C 21,1 C 6,6 km/h (2 Bft)
13.07.2020 10:52 21,3 C 22,6 C 50 % 1029,9 hPa 0,0 l/m 5,6 km/h (1 Bft) O-NO 67 10,4 C 21,3 C 6,3 km/h (2 Bft)
13.07.2020 10:50 20,7 C 22,1 C 49 % 1029,9 hPa 0,0 l/m 6,6 km/h (2 Bft) S 180 9,6 C 20,6 C 9,2 km/h (2 Bft)
13.07.2020 10:48 20,6 C 21,3 C 49 % 1029,9 hPa 0,0 l/m 7,1 km/h (2 Bft) O 90 9,5 C 20,3 C 9,2 km/h (2 Bft)
13.07.2020 10:46 20,8 C 21,6 C 49 % 1029,9 hPa 0,0 l/m 7,4 km/h (2 Bft) O-SO 112 9,7 C 20,4 C 9,2 km/h (2 Bft)
13.07.2020 10:44 20,9 C 21,5 C 50 % 1029,9 hPa 0,0 l/m 6,9 km/h (2 Bft) SO 135 10,1 C 20,7 C 9,2 km/h (2 Bft)
13.07.2020 10:42 20,5 C 21,2 C 50 % 1029,9 hPa 0,0 l/m 7,4 km/h (2 Bft) SO 135 9,7 C 20,1 C 11,4 km/h (2 Bft)
13.07.2020 10:40 20,5 C 21,1 C 50 % 1029,9 hPa 0,0 l/m 7,1 km/h (2 Bft) O-SO 112 9,7 C 20,2 C 11,4 km/h (2 Bft)
13.07.2020 10:38 20,4 C 20,6 C 49 % 1029,9 hPa 0,0 l/m 6,6 km/h (2 Bft) SO 135 9,3 C 20,3 C 9,3 km/h (2 Bft)
13.07.2020 10:36 20,5 C 20,4 C 50 % 1029,9 hPa 0,0 l/m 6,1 km/h (2 Bft) SO 135 9,7 C 20,5 C 17,1 km/h (3 Bft)
13.07.2020 10:34 20,7 C 21,1 C 50 % 1029,9 hPa 0,0 l/m 6,1 km/h (2 Bft) S 180 9,9 C 20,7 C 8,5 km/h (2 Bft)
13.07.2020 10:32 20,7 C 21,3 C 51 % 1029,9 hPa 0,0 l/m 6,1 km/h (2 Bft) SO 135 10,2 C 20,7 C 8,5 km/h (2 Bft)
13.07.2020 10:30 20,5 C 21,1 C 51 % 1029,9 hPa 0,0 l/m 5,8 km/h (2 Bft) O-SO 112 10,0 C 20,5 C 7,6 km/h (2 Bft)
13.07.2020 10:28 20,4 C 20,7 C 50 % 1029,9 hPa 0,0 l/m 6,1 km/h (2 Bft) SO 135 9,6 C 20,4 C 8,4 km/h (2 Bft)
13.07.2020 10:26 20,4 C 20,5 C 50 % 1029,9 hPa 0,0 l/m 6,1 km/h (2 Bft) O-SO 112 9,6 C 20,4 C 8,4 km/h (2 Bft)
13.07.2020 10:24 20,3 C 20,3 C 50 % 1029,9 hPa 0,0 l/m 6,1 km/h (2 Bft) S-SO 157 9,5 C 20,3 C 10,5 km/h (2 Bft)
13.07.2020 10:22 20,5 C 20,6 C 52 % 1029,9 hPa 0,0 l/m 6,1 km/h (2 Bft) O-SO 112 10,3 C 20,5 C 10,5 km/h (2 Bft)
13.07.2020 10:20 20,1 C 20,0 C 51 % 1029,9 hPa 0,0 l/m 6,8 km/h (2 Bft) O-NO 67 9,6 C 19,9 C 8,0 km/h (2 Bft)
13.07.2020 10:18 20,1 C 19,4 C 50 % 1029,9 hPa 0,0 l/m 7,9 km/h (2 Bft) NO 45 9,3 C 19,5 C 10,5 km/h (2 Bft)
13.07.2020 10:16 20,1 C 19,3 C 51 % 1030,1 hPa 0,0 l/m 7,9 km/h (2 Bft) O 90 9,6 C 19,5 C 10,5 km/h (2 Bft)
13.07.2020 10:14 20,1 C 19,0 C 50 % 1030,1 hPa 0,0 l/m 8,2 km/h (2 Bft) O-NO 67 9,3 C 19,4 C 9,0 km/h (2 Bft)
13.07.2020 10:12 20,1 C 19,6 C 52 % 1030,1 hPa 0,0 l/m 8,5 km/h (2 Bft) O 90 9,9 C 19,3 C 13,2 km/h (3 Bft)
13.07.2020 10:10 19,7 C 19,7 C 51 % 1030,1 hPa 0,0 l/m 8,2 km/h (2 Bft) O-SO 112 9,3 C 19,0 C 13,2 km/h (3 Bft)
13.07.2020 10:08 19,9 C 19,3 C 51 % 1030,1 hPa 0,0 l/m 7,6 km/h (2 Bft) O-SO 112 9,5 C 19,4 C 11,9 km/h (2 Bft)
13.07.2020 10:06 20,1 C 19,3 C 52 % 1030,1 hPa 0,0 l/m 7,7 km/h (2 Bft) O-SO 112 9,9 C 19,6 C 15,0 km/h (3 Bft)
13.07.2020 10:04 20,1 C 19,6 C 52 % 1030,1 hPa 0,0 l/m 7,4 km/h (2 Bft) SO 135 9,9 C 19,7 C 9,3 km/h (2 Bft)
13.07.2020 10:02 20,1 C 19,4 C 53 % 1030,1 hPa 0,0 l/m 7,1 km/h (2 Bft) S-SO 157 10,2 C 19,8 C 7,6 km/h (2 Bft)
13.07.2020 10:00 20,1 C 19,2 C 53 % 1030,1 hPa 0,0 l/m 6,9 km/h (2 Bft) O 90 10,2 C 19,9 C 7,2 km/h (2 Bft)
13.07.2020 09:58 19,7 C 19,3 C 53 % 1030,1 hPa 0,0 l/m 6,9 km/h (2 Bft) O-SO 112 9,8 C 19,5 C 11,3 km/h (2 Bft)
13.07.2020 09:56 20,1 C 19,5 C 53 % 1030,1 hPa 0,0 l/m 5,8 km/h (2 Bft) O 90 10,2 C 20,1 C 11,3 km/h (2 Bft)
13.07.2020 09:54 20,1 C 19,6 C 53 % 1030,1 hPa 0,0 l/m 6,0 km/h (2 Bft) SO 135 10,2 C 20,1 C 14,0 km/h (3 Bft)
13.07.2020 09:52 20,2 C 19,3 C 54 % 1030,1 hPa 0,0 l/m 6,6 km/h (2 Bft) O-SO 112 10,6 C 20,1 C 14,0 km/h (3 Bft)
13.07.2020 09:50 20,3 C 19,7 C 55 % 1030,1 hPa 0,0 l/m 6,3 km/h (2 Bft) O-NO 67 11,0 C 20,3 C 9,2 km/h (2 Bft)
13.07.2020 09:48 20,2 C 19,1 C 56 % 1030,1 hPa 0,0 l/m 6,1 km/h (2 Bft) S-SO 157 11,1 C 20,2 C 4,5 km/h (1 Bft)
13.07.2020 09:46 19,5 C 18,6 C 58 % 1030,1 hPa 0,0 l/m 4,0 km/h (1 Bft) O-SO 112 11,0 C 19,5 C 4,3 km/h (1 Bft)
13.07.2020 09:44 19,5 C 18,6 C 58 % 1030,1 hPa 0,0 l/m 4,0 km/h (1 Bft) O-SO 112 11,0 C 19,5 C 4,3 km/h (1 Bft)
13.07.2020 09:42 19,5 C 18,6 C 58 % 1030,1 hPa 0,0 l/m 4,0 km/h (1 Bft) O-SO 112 11,0 C 19,5 C 4,3 km/h (1 Bft)
13.07.2020 09:40 19,5 C 18,6 C 58 % 1030,1 hPa 0,0 l/m 4,0 km/h (1 Bft) O-SO 112 11,0 C 19,5 C 4,3 km/h (1 Bft)
13.07.2020 09:38 19,5 C 18,6 C 58 % 1030,1 hPa 0,0 l/m 4,0 km/h (1 Bft) O-SO 112 11,0 C 19,5 C 5,0 km/h (1 Bft)
13.07.2020 09:36 19,4 C 18,5 C 58 % 1030,3 hPa 0,0 l/m 4,0 km/h (1 Bft) O 90 10,9 C 19,4 C 5,0 km/h (1 Bft)
13.07.2020 09:34 19,3 C 18,2 C 59 % 1030,3 hPa 0,0 l/m 4,2 km/h (1 Bft) O-NO 67 11,1 C 19,3 C 4,5 km/h (1 Bft)
13.07.2020 09:32 19,0 C 17,9 C 59 % 1030,3 hPa 0,0 l/m 5,0 km/h (1 Bft) S 180 10,8 C 19,0 C 4,2 km/h (1 Bft)
13.07.2020 09:30 19,0 C 17,3 C 58 % 1030,3 hPa 0,0 l/m 5,1 km/h (1 Bft) SO 135 10,5 C 19,0 C 4,8 km/h (1 Bft)
13.07.2020 09:28 19,1 C 17,1 C 58 % 1030,3 hPa 0,0 l/m 6,1 km/h (2 Bft) O-NO 67 10,6 C 19,1 C 5,6 km/h (1 Bft)
13.07.2020 09:26 18,9 C 17,4 C 59 % 1030,3 hPa 0,0 l/m 6,6 km/h (2 Bft) NO 45 10,7 C 18,8 C 14,2 km/h (3 Bft)
13.07.2020 09:24 18,8 C 17,6 C 60 % 1030,3 hPa 0,0 l/m 6,6 km/h (2 Bft) O-NO 67 10,9 C 18,7 C 8,0 km/h (2 Bft)
13.07.2020 09:22 18,8 C 17,4 C 59 % 1030,3 hPa 0,0 l/m 5,8 km/h (2 Bft) NO 45 10,6 C 18,8 C 8,0 km/h (2 Bft)
13.07.2020 09:20 18,7 C 17,7 C 60 % 1030,3 hPa 0,0 l/m 5,3 km/h (1 Bft) O-SO 112 10,8 C 18,7 C 10,1 km/h (2 Bft)
13.07.2020 09:18 18,7 C 17,7 C 60 % 1030,3 hPa 0,0 l/m 4,2 km/h (1 Bft) O-SO 112 10,8 C 18,7 C 10,1 km/h (2 Bft)
13.07.2020 09:16 18,5 C 17,6 C 61 % 1030,2 hPa 0,0 l/m 3,4 km/h (1 Bft) SO 135 10,8 C 18,5 C 6,4 km/h (2 Bft)
13.07.2020 09:14 18,5 C 17,3 C 61 % 1030,2 hPa 0,0 l/m 2,9 km/h (1 Bft) SO 135 10,8 C 18,5 C 6,9 km/h (2 Bft)
13.07.2020 09:12 18,3 C 16,1 C 61 % 1030,2 hPa 0,0 l/m 3,1 km/h (1 Bft) SO 135 10,6 C 18,3 C 6,9 km/h (2 Bft)
13.07.2020 09:10 18,2 C 15,1 C 61 % 1030,2 hPa 0,0 l/m 3,1 km/h (1 Bft) S-SW 202 10,6 C 18,2 C 0,0 km/h (0 Bft)
13.07.2020 09:08 18,2 C 15,0 C 60 % 1030,2 hPa 0,0 l/m 3,5 km/h (1 Bft) SO 135 10,3 C 18,2 C 5,8 km/h (2 Bft)
13.07.2020 09:06 18,3 C 14,8 C 61 % 1030,2 hPa 0,0 l/m 3,9 km/h (1 Bft) O-NO 67 10,6 C 18,3 C 5,8 km/h (2 Bft)
13.07.2020 09:04 18,1 C 14,9 C 62 % 1030,2 hPa 0,0 l/m 4,2 km/h (1 Bft) O-SO 112 10,7 C 18,1 C 4,8 km/h (1 Bft)
13.07.2020 09:02 17,8 C 14,5 C 62 % 1030,2 hPa 0,0 l/m 4,3 km/h (1 Bft) SO 135 10,4 C 17,8 C 4,8 km/h (1 Bft)
13.07.2020 09:00 17,7 C 14,4 C 61 % 1030,2 hPa 0,0 l/m 4,3 km/h (1 Bft) O 90 10,1 C 17,7 C 3,5 km/h (1 Bft)
13.07.2020 08:58 17,6 C 14,4 C 62 % 1030,2 hPa 0,0 l/m 4,2 km/h (1 Bft) O-SO 112 10,2 C 17,6 C 4,3 km/h (1 Bft)
13.07.2020 08:56 17,7 C 14,4 C 62 % 1030,1 hPa 0,0 l/m 4,3 km/h (1 Bft) O-NO 67 10,3 C 17,7 C 6,8 km/h (2 Bft)
13.07.2020 08:54 17,4 C 14,3 C 62 % 1030,1 hPa 0,0 l/m 4,0 km/h (1 Bft) O-SO 112 10,0 C 17,4 C 6,8 km/h (2 Bft)
13.07.2020 08:52 17,4 C 14,2 C 62 % 1030,1 hPa 0,0 l/m 3,7 km/h (1 Bft) SO 135 10,0 C 17,4 C 6,0 km/h (2 Bft)
13.07.2020 08:50 17,4 C 13,9 C 62 % 1030,1 hPa 0,0 l/m 3,9 km/h (1 Bft) O-SO 112 10,0 C 17,4 C 4,8 km/h (1 Bft)
13.07.2020 08:48 17,3 C 13,8 C 63 % 1030,1 hPa 0,0 l/m 4,0 km/h (1 Bft) O-SO 112 10,2 C 17,3 C 4,7 km/h (1 Bft)
13.07.2020 08:46 17,3 C 13,8 C 63 % 1030,1 hPa 0,0 l/m 4,5 km/h (1 Bft) N-NO 22 10,2 C 17,3 C 11,9 km/h (2 Bft)
13.07.2020 08:44 17,3 C 14,0 C 63 % 1030,1 hPa 0,0 l/m 5,0 km/h (1 Bft) SO 135 10,2 C 17,3 C 5,3 km/h (1 Bft)
13.07.2020 08:42 17,2 C 13,9 C 64 % 1030,1 hPa 0,0 l/m 4,8 km/h (1 Bft) O-SO 112 10,3 C 17,2 C 4,8 km/h (1 Bft)
13.07.2020 08:40 17,0 C 13,6 C 64 % 1030,1 hPa 0,0 l/m 4,8 km/h (1 Bft) SO 135 10,1 C 17,0 C 4,8 km/h (1 Bft)
13.07.2020 08:38 16,8 C 13,8 C 64 % 1030,1 hPa 0,0 l/m 4,8 km/h (1 Bft) O-NO 67 10,0 C 16,8 C 5,6 km/h (1 Bft)
13.07.2020 08:36 16,8 C 13,6 C 64 % 1030,4 hPa 0,0 l/m 4,7 km/h (1 Bft) O-SO 112 10,0 C 16,8 C 9,7 km/h (2 Bft)
13.07.2020 08:34 16,7 C 13,7 C 64 % 1030,4 hPa 0,0 l/m 4,3 km/h (1 Bft) SO 135 9,9 C 16,7 C 9,7 km/h (2 Bft)
13.07.2020 08:32 16,5 C 13,3 C 64 % 1030,4 hPa 0,0 l/m 4,2 km/h (1 Bft) N 360 9,7 C 16,5 C 4,5 km/h (1 Bft)
13.07.2020 08:30 16,5 C 13,3 C 64 % 1030,4 hPa 0,0 l/m 4,3 km/h (1 Bft) O-NO 67 9,7 C 16,5 C 6,8 km/h (2 Bft)
13.07.2020 08:28 16,4 C 13,3 C 65 % 1030,4 hPa 0,0 l/m 4,5 km/h (1 Bft) O-SO 112 9,8 C 16,4 C 6,8 km/h (2 Bft)
13.07.2020 08:26 16,3 C 13,3 C 65 % 1030,4 hPa 0,0 l/m 4,5 km/h (1 Bft) O 90 9,7 C 16,3 C 7,7 km/h (2 Bft)
13.07.2020 08:24 16,2 C 13,1 C 65 % 1030,4 hPa 0,0 l/m 4,7 km/h (1 Bft) SO 135 9,6 C 16,2 C 7,7 km/h (2 Bft)
13.07.2020 08:22 16,1 C 12,9 C 65 % 1030,4 hPa 0,0 l/m 4,3 km/h (1 Bft) O-SO 112 9,5 C 16,1 C 5,1 km/h (1 Bft)
13.07.2020 08:20 16,1 C 12,8 C 65 % 1030,4 hPa 0,0 l/m 4,2 km/h (1 Bft) O-SO 112 9,5 C 16,1 C 6,3 km/h (2 Bft)
13.07.2020 08:18 15,9 C 12,7 C 65 % 1030,4 hPa 0,0 l/m 4,2 km/h (1 Bft) O-SO 112 9,3 C 15,9 C 6,3 km/h (2 Bft)
13.07.2020 08:16 15,9 C 12,9 C 65 % 1030,4 hPa 0,0 l/m 4,2 km/h (1 Bft) O-SO 112 9,3 C 15,9 C 6,0 km/h (2 Bft)
13.07.2020 08:14 15,8 C 13,1 C 65 % 1030,4 hPa 0,0 l/m 4,2 km/h (1 Bft) O-SO 112 9,2 C 15,8 C 5,1 km/h (1 Bft)
13.07.2020 08:12 15,7 C 12,6 C 65 % 1030,4 hPa 0,0 l/m 4,0 km/h (1 Bft) O 90 9,1 C 15,7 C 5,1 km/h (1 Bft)
13.07.2020 08:10 15,5 C 12,4 C 66 % 1030,4 hPa 0,0 l/m 3,9 km/h (1 Bft) O-SO 112 9,2 C 15,5 C 4,5 km/h (1 Bft)
13.07.2020 08:08 15,6 C 12,5 C 66 % 1030,4 hPa 0,0 l/m 4,2 km/h (1 Bft) O-NO 67 9,3 C 15,6 C 7,7 km/h (2 Bft)
13.07.2020 08:06 15,6 C 12,6 C 67 % 1030,4 hPa 0,0 l/m 4,2 km/h (1 Bft) SO 135 9,5 C 15,6 C 7,7 km/h (2 Bft)
13.07.2020 08:04 15,6 C 12,8 C 67 % 1030,4 hPa 0,0 l/m 3,7 km/h (1 Bft) O-NO 67 9,5 C 15,6 C 4,3 km/h (1 Bft)
13.07.2020 08:02 15,6 C 13,0 C 67 % 1030,4 hPa 0,0 l/m 3,7 km/h (1 Bft) O-SO 112 9,5 C 15,6 C 5,1 km/h (1 Bft)
13.07.2020 08:00 15,4 C 12,4 C 68 % 1030,4 hPa 0,0 l/m 3,9 km/h (1 Bft) SO 135 9,5 C 15,4 C 5,6 km/h (1 Bft)
13.07.2020 07:58 15,1 C 12,4 C 69 % 1030,4 hPa 0,0 l/m 3,9 km/h (1 Bft) O-SO 112 9,5 C 15,1 C 5,6 km/h (1 Bft)
13.07.2020 07:56 14,8 C 12,1 C 69 % 1030,2 hPa 0,0 l/m 3,7 km/h (1 Bft) O-NO 67 9,2 C 14,8 C 5,5 km/h (1 Bft)
13.07.2020 07:54 14,7 C 12,3 C 69 % 1030,2 hPa 0,0 l/m 3,5 km/h (1 Bft) O-NO 67 9,1 C 14,7 C 5,5 km/h (1 Bft)
13.07.2020 07:52 14,5 C 12,3 C 69 % 1030,2 hPa 0,0 l/m 3,5 km/h (1 Bft) O-SO 112 8,9 C 14,5 C 4,2 km/h (1 Bft)
13.07.2020 07:50 14,3 C 12,5 C 70 % 1030,2 hPa 0,0 l/m 3,9 km/h (1 Bft) O-NO 67 8,9 C 14,3 C 6,8 km/h (2 Bft)
13.07.2020 07:48 14,2 C 12,6 C 70 % 1030,2 hPa 0,0 l/m 3,7 km/h (1 Bft) O-SO 112 8,8 C 14,2 C 6,8 km/h (2 Bft)
13.07.2020 07:46 14,1 C 12,5 C 70 % 1030,2 hPa 0,0 l/m 3,4 km/h (1 Bft) SO 135 8,7 C 14,1 C 6,1 km/h (2 Bft)
13.07.2020 07:44 14,0 C 12,5 C 70 % 1030,2 hPa 0,0 l/m 3,9 km/h (1 Bft) O 90 8,6 C 14,0 C 6,1 km/h (2 Bft)
13.07.2020 07:42 14,0 C 12,6 C 71 % 1030,2 hPa 0,0 l/m 3,7 km/h (1 Bft) NO 45 8,8 C 14,0 C 5,1 km/h (1 Bft)
13.07.2020 07:40 13,8 C 12,5 C 71 % 1030,2 hPa 0,0 l/m 3,5 km/h (1 Bft) O 90 8,6 C 13,8 C 4,5 km/h (1 Bft)
13.07.2020 07:38 13,7 C 12,2 C 71 % 1030,2 hPa 0,0 l/m 3,5 km/h (1 Bft) O-NO 67 8,5 C 13,7 C 4,3 km/h (1 Bft)
13.07.2020 07:36 13,6 C 11,9 C 71 % 1030,2 hPa 0,0 l/m 3,7 km/h (1 Bft) O-SO 112 8,4 C 13,6 C 5,5 km/h (1 Bft)
13.07.2020 07:34 13,5 C 12,0 C 71 % 1030,2 hPa 0,0 l/m 3,9 km/h (1 Bft) O-SO 112 8,3 C 13,5 C 5,6 km/h (1 Bft)
13.07.2020 07:32 13,5 C 12,3 C 71 % 1030,2 hPa 0,0 l/m 4,3 km/h (1 Bft) O-NO 67 8,3 C 13,5 C 5,6 km/h (1 Bft)
13.07.2020 07:30 13,5 C 12,4 C 72 % 1030,2 hPa 0,0 l/m 4,5 km/h (1 Bft) NO 45 8,6 C 13,5 C 5,1 km/h (1 Bft)
13.07.2020 07:28 13,4 C 12,5 C 72 % 1030,2 hPa 0,0 l/m 4,7 km/h (1 Bft) NO 45 8,5 C 13,4 C 4,8 km/h (1 Bft)
13.07.2020 07:26 13,2 C 12,5 C 72 % 1030,2 hPa 0,0 l/m 4,5 km/h (1 Bft) O-NO 67 8,3 C 13,2 C 9,7 km/h (2 Bft)
13.07.2020 07:24 13,1 C 12,0 C 73 % 1030,2 hPa 0,0 l/m 4,8 km/h (1 Bft) O-NO 67 8,4 C 13,1 C 6,3 km/h (2 Bft)
13.07.2020 07:22 13,0 C 11,9 C 73 % 1030,2 hPa 0,0 l/m 4,5 km/h (1 Bft) O-NO 67 8,3 C 13,0 C 9,7 km/h (2 Bft)
13.07.2020 07:20 12,8 C 11,7 C 73 % 1030,2 hPa 0,0 l/m 4,2 km/h (1 Bft) O-NO 67 8,1 C 12,8 C 9,7 km/h (2 Bft)
13.07.2020 07:18 12,7 C 10,9 C 74 % 1030,2 hPa 0,0 l/m 4,0 km/h (1 Bft) O 90 8,2 C 12,7 C 5,3 km/h (1 Bft)
13.07.2020 07:16 12,6 C 10,9 C 74 % 1030,2 hPa 0,0 l/m 4,0 km/h (1 Bft) O-NO 67 8,1 C 12,6 C 7,9 km/h (2 Bft)
13.07.2020 07:14 12,5 C 11,0 C 74 % 1030,2 hPa 0,0 l/m 3,7 km/h (1 Bft) O-NO 67 8,0 C 12,5 C 7,9 km/h (2 Bft)
13.07.2020 07:12 12,3 C 10,9 C 74 % 1030,2 hPa 0,0 l/m 3,9 km/h (1 Bft) O-NO 67 7,8 C 12,3 C 3,9 km/h (1 Bft)
13.07.2020 07:10 12,0 C 10,7 C 76 % 1030,2 hPa 0,0 l/m 3,9 km/h (1 Bft) NO 45 7,9 C 12,0 C 7,6 km/h (2 Bft)
13.07.2020 07:08 11,8 C 10,9 C 76 % 1030,2 hPa 0,0 l/m 3,7 km/h (1 Bft) O-NO 67 7,7 C 11,8 C 7,6 km/h (2 Bft)
13.07.2020 07:06 11,6 C 10,6 C 76 % 1030,2 hPa 0,0 l/m 3,5 km/h (1 Bft) NO 45 7,5 C 11,6 C 6,6 km/h (2 Bft)
13.07.2020 07:04 11,3 C 9,4 C 76 % 1030,2 hPa 0,0 l/m 3,5 km/h (1 Bft) O-NO 67 7,2 C 11,3 C 6,6 km/h (2 Bft)
13.07.2020 07:02 10,9 C 9,2 C 76 % 1030,2 hPa 0,0 l/m 2,6 km/h (1 Bft) NO 45 6,8 C 10,9 C 6,6 km/h (2 Bft)
13.07.2020 07:00 10,8 C 8,7 C 76 % 1030,2 hPa 0,0 l/m 2,3 km/h (1 Bft) NO 45 6,7 C 10,8 C 5,0 km/h (1 Bft)
13.07.2020 06:58 10,6 C 8,5 C 76 % 1030,2 hPa 0,0 l/m 1,8 km/h (1 Bft) O-NO 67 6,5 C 10,6 C 4,2 km/h (1 Bft)
13.07.2020 06:56 10,4 C 8,5 C 76 % 1030,3 hPa 0,0 l/m 1,6 km/h (1 Bft) NO 45 6,4 C 10,4 C 4,2 km/h (1 Bft)
13.07.2020 06:54 10,3 C 8,3 C 75 % 1030,3 hPa 0,0 l/m 1,1 km/h (1 Bft) O-NO 67 6,1 C 10,3 C 2,4 km/h (1 Bft)
13.07.2020 06:52 10,3 C 8,3 C 75 % 1030,3 hPa 0,0 l/m 1,3 km/h (1 Bft) NO 45 6,1 C 10,3 C 2,4 km/h (1 Bft)
13.07.2020 06:50 10,2 C 8,2 C 75 % 1030,3 hPa 0,0 l/m 1,4 km/h (1 Bft) NO 45 6,0 C 10,2 C 2,4 km/h (1 Bft)
13.07.2020 06:48 10,2 C 8,3 C 75 % 1030,3 hPa 0,0 l/m 1,4 km/h (1 Bft) N-NO 22 6,0 C 10,2 C 4,7 km/h (1 Bft)
13.07.2020 06:46 10,0 C 8,0 C 74 % 1030,3 hPa 0,0 l/m 0,2 km/h (0 Bft) O-NO 67 5,6 C 10,0 C 4,7 km/h (1 Bft)
13.07.2020 06:44 10,0 C 8,0 C 74 % 1030,3 hPa 0,0 l/m 0,2 km/h (0 Bft) O-NO 67 5,6 C 10,0 C 4,7 km/h (1 Bft)
13.07.2020 06:42 10,0 C 8,0 C 74 % 1030,3 hPa 0,0 l/m 0,2 km/h (0 Bft) O-NO 67 5,6 C 10,0 C 4,7 km/h (1 Bft)
13.07.2020 06:40 10,0 C 8,0 C 74 % 1030,3 hPa 0,0 l/m 0,2 km/h (0 Bft) O-NO 67 5,6 C 10,0 C 4,7 km/h (1 Bft)
13.07.2020 06:38 10,0 C 8,0 C 74 % 1030,3 hPa 0,0 l/m 0,2 km/h (0 Bft) O-NO 67 5,6 C 10,0 C 4,7 km/h (1 Bft)
13.07.2020 06:36 10,0 C 8,0 C 74 % 1030,3 hPa 0,0 l/m 0,0 km/h (0 Bft) O-NO 67 5,6 C 10,0 C 0,0 km/h (0 Bft)
13.07.2020 06:34 10,0 C 7,9 C 74 % 1030,3 hPa 0,0 l/m 0,0 km/h (0 Bft) O 90 5,6 C 10,0 C 0,0 km/h (0 Bft)
13.07.2020 06:32 9,9 C 7,9 C 74 % 1030,3 hPa 0,0 l/m 0,0 km/h (0 Bft) N-NO 22 5,5 C 9,9 C 0,0 km/h (0 Bft)
13.07.2020 06:30 10,0 C 7,9 C 74 % 1030,3 hPa 0,0 l/m 0,0 km/h (0 Bft) NW 315 5,6 C 10,0 C 0,0 km/h (0 Bft)
13.07.2020 06:28 10,0 C 7,9 C 74 % 1030,3 hPa 0,0 l/m 0,0 km/h (0 Bft) W 270 5,6 C 10,0 C 0,0 km/h (0 Bft)
13.07.2020 06:26 9,9 C 7,9 C 74 % 1030,3 hPa 0,0 l/m 0,0 km/h (0 Bft) N-NW 337 5,5 C 9,9 C 0,0 km/h (0 Bft)
13.07.2020 06:24 9,9 C 7,9 C 73 % 1030,3 hPa 0,0 l/m 0,0 km/h (0 Bft) S 180 5,3 C 9,9 C 0,0 km/h (0 Bft)
13.07.2020 06:22 9,9 C 7,8 C 73 % 1030,3 hPa 0,0 l/m 0,0 km/h (0 Bft) S-SO 157 5,3 C 9,9 C 0,0 km/h (0 Bft)
13.07.2020 06:20 9,9 C 7,7 C 73 % 1030,3 hPa 0,0 l/m 0,0 km/h (0 Bft) S-SO 157 5,3 C 9,9 C 0,0 km/h (0 Bft)
13.07.2020 06:18 9,9 C 7,7 C 73 % 1030,3 hPa 0,0 l/m 0,0 km/h (0 Bft) SO 135 5,3 C 9,9 C 0,0 km/h (0 Bft)
13.07.2020 06:16 9,9 C 7,7 C 73 % 1030,4 hPa 0,0 l/m 0,0 km/h (0 Bft) SO 135 5,3 C 9,9 C 0,0 km/h (0 Bft)
13.07.2020 06:14 9,9 C 7,8 C 73 % 1030,4 hPa 0,0 l/m 0,0 km/h (0 Bft) O 90 5,3 C 9,9 C 0,0 km/h (0 Bft)
13.07.2020 06:12 9,8 C 7,7 C 73 % 1030,4 hPa 0,0 l/m 0,0 km/h (0 Bft) S-SO 157 5,2 C 9,8 C 0,0 km/h (0 Bft)
13.07.2020 06:10 9,8 C 7,7 C 72 % 1030,4 hPa 0,0 l/m 0,0 km/h (0 Bft) S 180 5,0 C 9,8 C 0,0 km/h (0 Bft)
13.07.2020 06:08 9,8 C 7,6 C 72 % 1030,4 hPa 0,0 l/m 0,0 km/h (0 Bft) S 180 5,0 C 9,8 C 0,0 km/h (0 Bft)
13.07.2020 06:06 9,8 C 7,5 C 72 % 1030,4 hPa 0,0 l/m 0,0 km/h (0 Bft) S 180 5,0 C 9,8 C 0,0 km/h (0 Bft)
13.07.2020 06:04 9,8 C 7,4 C 72 % 1030,4 hPa 0,0 l/m 0,0 km/h (0 Bft) SO 135 5,0 C 9,8 C 0,0 km/h (0 Bft)
13.07.2020 06:02 9,8 C 7,5 C 72 % 1030,4 hPa 0,0 l/m 0,3 km/h (0 Bft) O-SO 112 5,0 C 9,8 C 0,0 km/h (0 Bft)
13.07.2020 06:00 9,9 C 7,5 C 72 % 1030,4 hPa 0,0 l/m 0,6 km/h (0 Bft) W 270 5,1 C 9,9 C 0,0 km/h (0 Bft)
13.07.2020 05:58 9,9 C 7,4 C 71 % 1030,4 hPa 0,0 l/m 1,1 km/h (1 Bft) S 180 4,9 C 9,9 C 0,0 km/h (0 Bft)
13.07.2020 05:56 9,9 C 7,4 C 71 % 1030,6 hPa 0,0 l/m 1,4 km/h (1 Bft) S-SO 157 4,9 C 9,9 C 2,4 km/h (1 Bft)
13.07.2020 05:54 9,9 C 7,3 C 71 % 1030,6 hPa 0,0 l/m 1,6 km/h (1 Bft) O-NO 67 4,9 C 9,9 C 2,4 km/h (1 Bft)
13.07.2020 05:52 9,9 C 7,5 C 71 % 1030,6 hPa 0,0 l/m 1,3 km/h (1 Bft) O-NO 67 4,9 C 9,9 C 3,5 km/h (1 Bft)
13.07.2020 05:50 10,0 C 7,5 C 71 % 1030,6 hPa 0,0 l/m 1,3 km/h (1 Bft) O-NO 67 5,0 C 10,0 C 3,5 km/h (1 Bft)
13.07.2020 05:48 10,0 C 7,5 C 70 % 1030,6 hPa 0,0 l/m 1,0 km/h (0 Bft) O-NO 67 4,8 C 10,0 C 1,9 km/h (1 Bft)
13.07.2020 05:46 10,1 C 7,5 C 70 % 1030,6 hPa 0,0 l/m 1,1 km/h (1 Bft) O-NO 67 4,9 C 10,1 C 1,9 km/h (1 Bft)
13.07.2020 05:44 10,1 C 7,6 C 70 % 1030,6 hPa 0,0 l/m 1,3 km/h (1 Bft) O-NO 67 4,9 C 10,1 C 0,0 km/h (0 Bft)
13.07.2020 05:42 10,2 C 7,6 C 70 % 1030,6 hPa 0,0 l/m 2,1 km/h (1 Bft) NO 45 5,0 C 10,2 C 0,0 km/h (0 Bft)
13.07.2020 05:40 10,2 C 7,6 C 69 % 1030,6 hPa 0,0 l/m 2,6 km/h (1 Bft) W-SW 247 4,8 C 10,2 C 2,6 km/h (1 Bft)
13.07.2020 05:38 10,3 C 7,6 C 69 % 1030,6 hPa 0,0 l/m 2,9 km/h (1 Bft) O-NO 67 4,9 C 10,3 C 3,5 km/h (1 Bft)
13.07.2020 05:36 10,3 C 7,6 C 68 % 1030,6 hPa 0,0 l/m 2,9 km/h (1 Bft) O-NO 67 4,7 C 10,3 C 3,5 km/h (1 Bft)
13.07.2020 05:34 10,3 C 7,5 C 68 % 1030,6 hPa 0,0 l/m 2,7 km/h (1 Bft) N-NO 22 4,7 C 10,3 C 5,1 km/h (1 Bft)
13.07.2020 05:32 10,5 C 7,6 C 68 % 1030,6 hPa 0,0 l/m 2,7 km/h (1 Bft) NO 45 4,8 C 10,5 C 5,1 km/h (1 Bft)
13.07.2020 05:30 10,6 C 7,9 C 68 % 1030,6 hPa 0,0 l/m 2,4 km/h (1 Bft) N-NO 22 4,9 C 10,6 C 5,0 km/h (1 Bft)
13.07.2020 05:28 10,8 C 7,9 C 67 % 1030,6 hPa 0,0 l/m 2,4 km/h (1 Bft) NO 45 4,9 C 10,8 C 5,0 km/h (1 Bft)
13.07.2020 05:26 11,1 C 8,1 C 67 % 1030,6 hPa 0,0 l/m 2,4 km/h (1 Bft) NO 45 5,2 C 11,1 C 2,9 km/h (1 Bft)
13.07.2020 05:24 11,5 C 8,3 C 67 % 1030,6 hPa 0,0 l/m 2,6 km/h (1 Bft) O-NO 67 5,6 C 11,5 C 2,9 km/h (1 Bft)
13.07.2020 05:22 11,8 C 8,6 C 67 % 1030,6 hPa 0,0 l/m 2,6 km/h (1 Bft) O-NO 67 5,9 C 11,8 C 2,7 km/h (1 Bft)
13.07.2020 05:20 12,0 C 9,3 C 67 % 1030,6 hPa 0,0 l/m 2,6 km/h (1 Bft) O 90 6,1 C 12,0 C 2,6 km/h (1 Bft)
13.07.2020 05:18 12,2 C 9,6 C 67 % 1030,6 hPa 0,0 l/m 2,6 km/h (1 Bft) NO 45 6,3 C 12,2 C 4,3 km/h (1 Bft)
13.07.2020 05:16 12,2 C 10,1 C 67 % 1030,7 hPa 0,0 l/m 3,1 km/h (1 Bft) O-NO 67 6,3 C 12,2 C 4,3 km/h (1 Bft)
13.07.2020 05:14 12,2 C 9,9 C 67 % 1030,7 hPa 0,0 l/m 3,1 km/h (1 Bft) O-NO 67 6,3 C 12,2 C 4,2 km/h (1 Bft)
13.07.2020 05:12 12,3 C 10,0 C 66 % 1030,7 hPa 0,0 l/m 3,1 km/h (1 Bft) O-NO 67 6,1 C 12,3 C 3,2 km/h (1 Bft)
13.07.2020 05:10 12,3 C 10,0 C 66 % 1030,7 hPa 0,0 l/m 3,2 km/h (1 Bft) O 90 6,1 C 12,3 C 3,2 km/h (1 Bft)
13.07.2020 05:08 12,3 C 10,3 C 65 % 1030,7 hPa 0,0 l/m 3,2 km/h (1 Bft) O 90 5,9 C 12,3 C 4,8 km/h (1 Bft)
13.07.2020 05:06 12,3 C 10,5 C 65 % 1030,7 hPa 0,0 l/m 3,1 km/h (1 Bft) O 90 5,9 C 12,3 C 4,8 km/h (1 Bft)
13.07.2020 05:04 12,3 C 10,6 C 65 % 1030,7 hPa 0,0 l/m 2,9 km/h (1 Bft) O-NO 67 5,9 C 12,3 C 5,5 km/h (1 Bft)
13.07.2020 05:02 12,3 C 10,4 C 65 % 1030,7 hPa 0,0 l/m 2,9 km/h (1 Bft) O 90 5,9 C 12,3 C 5,5 km/h (1 Bft)
13.07.2020 05:00 12,2 C 10,3 C 66 % 1030,7 hPa 0,0 l/m 2,7 km/h (1 Bft) O-NO 67 6,0 C 12,2 C 4,3 km/h (1 Bft)
13.07.2020 04:58 12,2 C 10,0 C 66 % 1030,7 hPa 0,0 l/m 2,6 km/h (1 Bft) O-NO 67 6,0 C 12,2 C 3,5 km/h (1 Bft)
13.07.2020 04:56 12,2 C 10,1 C 66 % 1031,1 hPa 0,0 l/m 2,6 km/h (1 Bft) W 270 6,0 C 12,2 C 2,7 km/h (1 Bft)
13.07.2020 04:54 12,3 C 9,9 C 64 % 1031,1 hPa 0,0 l/m 2,9 km/h (1 Bft) O-NO 67 5,7 C 12,3 C 2,9 km/h (1 Bft)
13.07.2020 04:52 12,4 C 10,0 C 64 % 1031,1 hPa 0,0 l/m 2,9 km/h (1 Bft) O 90 5,8 C 12,4 C 4,3 km/h (1 Bft)
13.07.2020 04:50 12,5 C 10,3 C 64 % 1031,1 hPa 0,0 l/m 3,2 km/h (1 Bft) O-NO 67 5,9 C 12,5 C 4,3 km/h (1 Bft)
13.07.2020 04:48 12,5 C 10,8 C 64 % 1031,1 hPa 0,0 l/m 3,7 km/h (1 Bft) O 90 5,9 C 12,5 C 3,4 km/h (1 Bft)
13.07.2020 04:46 12,6 C 10,7 C 64 % 1031,1 hPa 0,0 l/m 4,2 km/h (1 Bft) O-SO 112 6,0 C 12,6 C 4,0 km/h (1 Bft)
13.07.2020 04:44 12,7 C 11,1 C 64 % 1031,1 hPa 0,0 l/m 4,5 km/h (1 Bft) O 90 6,1 C 12,7 C 4,0 km/h (1 Bft)
13.07.2020 04:42 12,7 C 11,2 C 64 % 1031,1 hPa 0,0 l/m 4,7 km/h (1 Bft) O-NO 67 6,1 C 12,7 C 6,3 km/h (2 Bft)
13.07.2020 04:40 12,8 C 11,4 C 64 % 1031,1 hPa 0,0 l/m 5,0 km/h (1 Bft) O-NO 67 6,2 C 12,8 C 6,3 km/h (2 Bft)
13.07.2020 04:38 12,9 C 11,6 C 64 % 1031,1 hPa 0,0 l/m 5,0 km/h (1 Bft) O-NO 67 6,3 C 12,9 C 7,6 km/h (2 Bft)
13.07.2020 04:36 12,9 C 11,7 C 64 % 1031,1 hPa 0,0 l/m 5,0 km/h (1 Bft) O-NO 67 6,3 C 12,9 C 8,0 km/h (2 Bft)
13.07.2020 04:34 12,9 C 11,5 C 64 % 1031,1 hPa 0,0 l/m 5,0 km/h (1 Bft) O-NO 67 6,3 C 12,9 C 8,0 km/h (2 Bft)
13.07.2020 04:32 13,0 C 11,8 C 64 % 1031,1 hPa 0,0 l/m 4,8 km/h (1 Bft) O-SO 112 6,4 C 13,0 C 5,8 km/h (2 Bft)
13.07.2020 04:30 13,0 C 11,7 C 64 % 1031,1 hPa 0,0 l/m 5,1 km/h (1 Bft) O 90 6,4 C 13,0 C 6,9 km/h (2 Bft)
13.07.2020 04:28 13,0 C 11,8 C 64 % 1031,1 hPa 0,0 l/m 5,1 km/h (1 Bft) O-NO 67 6,4 C 13,0 C 6,9 km/h (2 Bft)
13.07.2020 04:26 13,0 C 11,8 C 64 % 1031,1 hPa 0,0 l/m 5,6 km/h (1 Bft) O 90 6,4 C 13,0 C 7,6 km/h (2 Bft)
13.07.2020 04:24 13,1 C 11,8 C 64 % 1031,1 hPa 0,0 l/m 6,0 km/h (2 Bft) O-NO 67 6,4 C 13,1 C 7,6 km/h (2 Bft)
13.07.2020 04:22 13,1 C 12,1 C 63 % 1031,1 hPa 0,0 l/m 6,4 km/h (2 Bft) O-NO 67 6,2 C 13,1 C 10,1 km/h (2 Bft)
13.07.2020 04:20 13,1 C 11,9 C 63 % 1031,1 hPa 0,0 l/m 6,9 km/h (2 Bft) O-NO 67 6,2 C 12,8 C 10,1 km/h (2 Bft)
13.07.2020 04:18 13,1 C 11,9 C 63 % 1031,1 hPa 0,0 l/m 6,9 km/h (2 Bft) O-NO 67 6,2 C 12,8 C 7,9 km/h (2 Bft)
13.07.2020 04:16 13,2 C 12,1 C 63 % 1031,4 hPa 0,0 l/m 7,1 km/h (2 Bft) O-NO 67 6,3 C 12,8 C 7,9 km/h (2 Bft)
13.07.2020 04:14 13,2 C 12,0 C 63 % 1031,4 hPa 0,0 l/m 7,2 km/h (2 Bft) O-NO 67 6,3 C 12,7 C 7,1 km/h (2 Bft)
13.07.2020 04:12 13,3 C 12,2 C 63 % 1031,4 hPa 0,0 l/m 7,2 km/h (2 Bft) O-NO 67 6,4 C 12,8 C 8,9 km/h (2 Bft)
13.07.2020 04:10 13,3 C 12,3 C 63 % 1031,4 hPa 0,0 l/m 7,4 km/h (2 Bft) O-NO 67 6,4 C 12,7 C 8,9 km/h (2 Bft)
13.07.2020 04:08 13,3 C 12,4 C 63 % 1031,4 hPa 0,0 l/m 7,2 km/h (2 Bft) O-NO 67 6,4 C 12,8 C 9,0 km/h (2 Bft)
13.07.2020 04:06 13,3 C 12,3 C 63 % 1031,4 hPa 0,0 l/m 7,4 km/h (2 Bft) O-SO 112 6,4 C 12,7 C 10,9 km/h (2 Bft)
13.07.2020 04:04 13,3 C 12,2 C 63 % 1031,4 hPa 0,0 l/m 7,1 km/h (2 Bft) O-NO 67 6,4 C 12,9 C 10,9 km/h (2 Bft)
13.07.2020 04:02 13,3 C 12,3 C 63 % 1031,4 hPa 0,0 l/m 7,1 km/h (2 Bft) O-NO 67 6,4 C 12,9 C 9,8 km/h (2 Bft)
13.07.2020 04:00 13,4 C 12,4 C 63 % 1031,4 hPa 0,0 l/m 6,9 km/h (2 Bft) O-NO 67 6,5 C 13,1 C 9,3 km/h (2 Bft)
13.07.2020 03:58 13,4 C 12,4 C 63 % 1031,4 hPa 0,0 l/m 7,1 km/h (2 Bft) O-NO 67 6,5 C 13,0 C 8,0 km/h (2 Bft)
13.07.2020 03:56 13,3 C 12,3 C 63 % 1031,2 hPa 0,0 l/m 6,9 km/h (2 Bft) O-NO 67 6,4 C 13,0 C 7,4 km/h (2 Bft)
13.07.2020 03:54 13,3 C 12,3 C 63 % 1031,2 hPa 0,0 l/m 7,1 km/h (2 Bft) O-NO 67 6,4 C 12,9 C 8,0 km/h (2 Bft)
13.07.2020 03:52 13,4 C 12,2 C 63 % 1031,2 hPa 0,0 l/m 7,1 km/h (2 Bft) O-NO 67 6,5 C 13,0 C 8,2 km/h (2 Bft)
13.07.2020 03:50 13,4 C 12,2 C 63 % 1031,2 hPa 0,0 l/m 7,2 km/h (2 Bft) O 90 6,5 C 12,9 C 8,2 km/h (2 Bft)
13.07.2020 03:48 13,4 C 12,4 C 63 % 1031,2 hPa 0,0 l/m 7,2 km/h (2 Bft) O 90 6,5 C 12,9 C 10,0 km/h (2 Bft)
13.07.2020 03:46 13,4 C 12,3 C 63 % 1031,2 hPa 0,0 l/m 7,2 km/h (2 Bft) O 90 6,5 C 12,9 C 10,0 km/h (2 Bft)
13.07.2020 03:44 13,4 C 12,4 C 63 % 1031,2 hPa 0,0 l/m 7,2 km/h (2 Bft) SO 135 6,5 C 12,9 C 10,0 km/h (2 Bft)
13.07.2020 03:42 13,4 C 12,3 C 63 % 1031,2 hPa 0,0 l/m 7,4 km/h (2 Bft) O-NO 67 6,5 C 12,8 C 10,0 km/h (2 Bft)
13.07.2020 03:40 13,4 C 12,4 C 63 % 1031,2 hPa 0,0 l/m 7,2 km/h (2 Bft) O 90 6,5 C 12,9 C 9,2 km/h (2 Bft)
13.07.2020 03:38 13,5 C 12,3 C 63 % 1031,2 hPa 0,0 l/m 7,4 km/h (2 Bft) O-NO 67 6,6 C 12,9 C 8,2 km/h (2 Bft)
13.07.2020 03:36 13,5 C 12,5 C 63 % 1031,6 hPa 0,0 l/m 7,6 km/h (2 Bft) O-NO 67 6,6 C 12,8 C 8,2 km/h (2 Bft)
13.07.2020 03:34 13,5 C 12,4 C 63 % 1031,6 hPa 0,0 l/m 7,7 km/h (2 Bft) O-NO 67 6,6 C 12,7 C 8,9 km/h (2 Bft)
13.07.2020 03:32 13,5 C 12,5 C 63 % 1031,6 hPa 0,0 l/m 8,0 km/h (2 Bft) NO 45 6,6 C 12,5 C 8,9 km/h (2 Bft)
13.07.2020 03:30 13,5 C 12,6 C 63 % 1031,6 hPa 0,0 l/m 8,2 km/h (2 Bft) O-NO 67 6,6 C 12,4 C 8,4 km/h (2 Bft)
13.07.2020 03:28 13,5 C 12,4 C 63 % 1031,6 hPa 0,0 l/m 8,7 km/h (2 Bft) O 90 6,6 C 12,1 C 8,4 km/h (2 Bft)
13.07.2020 03:26 13,5 C 12,5 C 63 % 1031,6 hPa 0,0 l/m 8,9 km/h (2 Bft) O-NO 67 6,6 C 12,0 C 9,8 km/h (2 Bft)
13.07.2020 03:24 13,5 C 12,5 C 63 % 1031,6 hPa 0,0 l/m 8,9 km/h (2 Bft) O-NO 67 6,6 C 12,0 C 9,8 km/h (2 Bft)
13.07.2020 03:22 13,5 C 12,5 C 63 % 1031,6 hPa 0,0 l/m 8,9 km/h (2 Bft) O 90 6,6 C 12,0 C 9,7 km/h (2 Bft)
13.07.2020 03:20 13,5 C 12,6 C 63 % 1031,6 hPa 0,0 l/m 8,7 km/h (2 Bft) O-SO 112 6,6 C 12,1 C 11,3 km/h (2 Bft)
13.07.2020 03:18 13,5 C 12,5 C 63 % 1031,6 hPa 0,0 l/m 8,7 km/h (2 Bft) O-NO 67 6,6 C 12,1 C 11,3 km/h (2 Bft)
13.07.2020 03:16 13,4 C 12,4 C 63 % 1031,8 hPa 0,0 l/m 8,5 km/h (2 Bft) O-NO 67 6,5 C 12,1 C 10,8 km/h (2 Bft)
13.07.2020 03:14 13,4 C 12,4 C 63 % 1031,8 hPa 0,0 l/m 8,5 km/h (2 Bft) O-NO 67 6,5 C 12,1 C 8,7 km/h (2 Bft)
13.07.2020 03:12 13,4 C 12,4 C 63 % 1031,8 hPa 0,0 l/m 8,7 km/h (2 Bft) O-NO 67 6,5 C 12,0 C 11,9 km/h (2 Bft)
13.07.2020 03:10 13,5 C 12,4 C 64 % 1031,8 hPa 0,0 l/m 9,0 km/h (2 Bft) O-NO 67 6,8 C 12,0 C 11,9 km/h (2 Bft)
13.07.2020 03:08 13,5 C 12,5 C 64 % 1031,8 hPa 0,0 l/m 8,9 km/h (2 Bft) O-NO 67 6,8 C 12,0 C 8,7 km/h (2 Bft)
13.07.2020 03:06 13,5 C 12,5 C 64 % 1031,8 hPa 0,0 l/m 8,5 km/h (2 Bft) O-NO 67 6,8 C 12,2 C 10,3 km/h (2 Bft)
13.07.2020 03:04 13,4 C 12,5 C 64 % 1031,8 hPa 0,0 l/m 8,5 km/h (2 Bft) NO 45 6,7 C 12,1 C 12,1 km/h (2 Bft)
13.07.2020 03:02 13,4 C 12,6 C 64 % 1031,8 hPa 0,0 l/m 8,2 km/h (2 Bft) O-NO 67 6,7 C 12,3 C 12,1 km/h (2 Bft)
13.07.2020 03:00 13,4 C 12,4 C 64 % 1031,8 hPa 0,0 l/m 7,9 km/h (2 Bft) NO 45 6,7 C 12,5 C 11,4 km/h (2 Bft)
13.07.2020 02:58 13,4 C 12,4 C 64 % 1031,8 hPa 0,0 l/m 7,6 km/h (2 Bft) O 90 6,7 C 12,7 C 8,7 km/h (2 Bft)
13.07.2020 02:56 13,5 C 12,4 C 64 % 1032,1 hPa 0,0 l/m 7,4 km/h (2 Bft) O-NO 67 6,8 C 12,9 C 8,5 km/h (2 Bft)
13.07.2020 02:54 13,5 C 12,5 C 64 % 1032,1 hPa 0,0 l/m 7,4 km/h (2 Bft) NO 45 6,8 C 12,9 C 9,0 km/h (2 Bft)
13.07.2020 02:52 13,4 C 12,4 C 64 % 1032,1 hPa 0,0 l/m 7,2 km/h (2 Bft) O-NO 67 6,7 C 12,9 C 9,0 km/h (2 Bft)
13.07.2020 02:50 13,5 C 12,4 C 64 % 1032,1 hPa 0,0 l/m 7,1 km/h (2 Bft) O-NO 67 6,8 C 13,1 C 8,2 km/h (2 Bft)
13.07.2020 02:48 13,5 C 12,4 C 64 % 1032,1 hPa 0,0 l/m 6,9 km/h (2 Bft) O-NO 67 6,8 C 13,2 C 9,7 km/h (2 Bft)
13.07.2020 02:46 13,5 C 12,5 C 64 % 1032,1 hPa 0,0 l/m 6,6 km/h (2 Bft) O-NO 67 6,8 C 13,4 C 9,7 km/h (2 Bft)
13.07.2020 02:44 13,5 C 12,5 C 65 % 1032,1 hPa 0,0 l/m 6,4 km/h (2 Bft) O-NO 67 7,1 C 13,5 C 9,7 km/h (2 Bft)
13.07.2020 02:42 13,4 C 12,3 C 65 % 1032,1 hPa 0,0 l/m 6,1 km/h (2 Bft) O-NO 67 7,0 C 13,4 C 9,7 km/h (2 Bft)
13.07.2020 02:40 13,3 C 12,2 C 65 % 1032,1 hPa 0,0 l/m 5,8 km/h (2 Bft) O-NO 67 6,9 C 13,3 C 7,4 km/h (2 Bft)
13.07.2020 02:38 13,3 C 12,0 C 65 % 1032,1 hPa 0,0 l/m 5,6 km/h (1 Bft) O-NO 67 6,9 C 13,3 C 7,1 km/h (2 Bft)
13.07.2020 02:36 13,3 C 12,1 C 65 % 1032,0 hPa 0,0 l/m 5,5 km/h (1 Bft) NO 45 6,9 C 13,3 C 6,3 km/h (2 Bft)
13.07.2020 02:34 13,2 C 12,1 C 66 % 1032,0 hPa 0,0 l/m 5,3 km/h (1 Bft) O-SO 112 7,0 C 13,2 C 6,9 km/h (2 Bft)
13.07.2020 02:32 13,1 C 11,7 C 66 % 1032,0 hPa 0,0 l/m 5,1 km/h (1 Bft) O-NO 67 6,9 C 13,1 C 6,9 km/h (2 Bft)
13.07.2020 02:30 13,1 C 11,2 C 66 % 1032,0 hPa 0,0 l/m 4,8 km/h (1 Bft) NO 45 6,9 C 13,1 C 6,6 km/h (2 Bft)
13.07.2020 02:28 13,0 C 11,1 C 66 % 1032,0 hPa 0,0 l/m 4,7 km/h (1 Bft) O-NO 67 6,8 C 13,0 C 6,4 km/h (2 Bft)
13.07.2020 02:26 12,9 C 10,9 C 66 % 1032,0 hPa 0,0 l/m 4,5 km/h (1 Bft) O-NO 67 6,7 C 12,9 C 5,8 km/h (2 Bft)
13.07.2020 02:24 12,8 C 10,1 C 65 % 1032,0 hPa 0,0 l/m 4,5 km/h (1 Bft) O-NO 67 6,4 C 12,8 C 6,3 km/h (2 Bft)
13.07.2020 02:22 13,0 C 10,5 C 65 % 1032,0 hPa 0,0 l/m 4,7 km/h (1 Bft) O-NO 67 6,6 C 13,0 C 6,3 km/h (2 Bft)
13.07.2020 02:20 13,1 C 11,2 C 65 % 1032,0 hPa 0,0 l/m 4,5 km/h (1 Bft) O-NO 67 6,7 C 13,1 C 8,4 km/h (2 Bft)
13.07.2020 02:18 13,2 C 11,5 C 65 % 1032,0 hPa 0,0 l/m 4,5 km/h (1 Bft) O-NO 67 6,8 C 13,2 C 8,4 km/h (2 Bft)
13.07.2020 02:16 13,3 C 11,8 C 65 % 1032,1 hPa 0,0 l/m 4,7 km/h (1 Bft) O-NO 67 6,9 C 13,3 C 6,9 km/h (2 Bft)
13.07.2020 02:14 13,4 C 12,0 C 65 % 1032,1 hPa 0,0 l/m 5,0 km/h (1 Bft) O-NO 67 7,0 C 13,4 C 6,9 km/h (2 Bft)
13.07.2020 02:12 13,4 C 12,2 C 65 % 1032,1 hPa 0,0 l/m 4,8 km/h (1 Bft) O 90 7,0 C 13,4 C 5,8 km/h (2 Bft)
13.07.2020 02:10 13,4 C 12,2 C 65 % 1032,1 hPa 0,0 l/m 5,1 km/h (1 Bft) O 90 7,0 C 13,4 C 5,6 km/h (1 Bft)
13.07.2020 02:08 13,4 C 12,3 C 65 % 1032,1 hPa 0,0 l/m 5,6 km/h (1 Bft) O-NO 67 7,0 C 13,4 C 5,6 km/h (1 Bft)
13.07.2020 02:06 13,5 C 12,2 C 65 % 1032,1 hPa 0,0 l/m 5,8 km/h (2 Bft) O-NO 67 7,1 C 13,5 C 7,2 km/h (2 Bft)
13.07.2020 02:04 13,5 C 12,2 C 65 % 1032,1 hPa 0,0 l/m 5,8 km/h (2 Bft) O-NO 67 7,1 C 13,5 C 7,2 km/h (2 Bft)
13.07.2020 02:02 13,5 C 12,2 C 64 % 1032,1 hPa 0,0 l/m 5,6 km/h (1 Bft) O-NO 67 6,8 C 13,5 C 7,2 km/h (2 Bft)
13.07.2020 02:00 13,6 C 12,3 C 64 % 1032,1 hPa 0,0 l/m 5,5 km/h (1 Bft) O 90 6,9 C 13,6 C 8,5 km/h (2 Bft)
13.07.2020 01:58 13,6 C 12,3 C 64 % 1032,1 hPa 0,0 l/m 5,3 km/h (1 Bft) O-NO 67 6,9 C 13,6 C 8,5 km/h (2 Bft)
13.07.2020 01:56 13,6 C 12,4 C 64 % 1032,1 hPa 0,0 l/m 5,3 km/h (1 Bft) O 90 6,9 C 13,6 C 7,4 km/h (2 Bft)
13.07.2020 01:54 13,6 C 12,3 C 64 % 1032,1 hPa 0,0 l/m 5,1 km/h (1 Bft) O 90 6,9 C 13,6 C 7,4 km/h (2 Bft)
13.07.2020 01:52 13,7 C 12,3 C 64 % 1032,1 hPa 0,0 l/m 5,5 km/h (1 Bft) O-NO 67 7,0 C 13,7 C 4,7 km/h (1 Bft)
13.07.2020 01:50 13,8 C 12,5 C 64 % 1032,1 hPa 0,0 l/m 5,6 km/h (1 Bft) O-NO 67 7,1 C 13,8 C 7,9 km/h (2 Bft)
13.07.2020 01:48 13,8 C 12,6 C 64 % 1032,1 hPa 0,0 l/m 6,1 km/h (2 Bft) O-NO 67 7,1 C 13,8 C 8,4 km/h (2 Bft)
13.07.2020 01:46 13,9 C 12,7 C 64 % 1032,1 hPa 0,0 l/m 6,4 km/h (2 Bft) O-NO 67 7,2 C 13,9 C 8,4 km/h (2 Bft)
13.07.2020 01:44 13,9 C 12,7 C 63 % 1032,1 hPa 0,0 l/m 6,8 km/h (2 Bft) O-NO 67 7,0 C 13,7 C 8,0 km/h (2 Bft)
13.07.2020 01:42 14,0 C 12,8 C 63 % 1032,1 hPa 0,0 l/m 6,9 km/h (2 Bft) O-NO 67 7,1 C 13,7 C 7,1 km/h (2 Bft)
13.07.2020 01:40 14,1 C 12,9 C 63 % 1032,1 hPa 0,0 l/m 7,1 km/h (2 Bft) O-NO 67 7,2 C 13,7 C 7,4 km/h (2 Bft)
13.07.2020 01:38 14,1 C 13,0 C 63 % 1032,1 hPa 0,0 l/m 6,9 km/h (2 Bft) NO 45 7,2 C 13,8 C 8,7 km/h (2 Bft)
13.07.2020 01:36 14,1 C 13,1 C 64 % 1032,6 hPa 0,0 l/m 6,4 km/h (2 Bft) O-NO 67 7,4 C 14,1 C 8,7 km/h (2 Bft)
13.07.2020 01:34 14,0 C 13,1 C 64 % 1032,6 hPa 0,0 l/m 6,0 km/h (2 Bft) O 90 7,3 C 14,0 C 8,7 km/h (2 Bft)
13.07.2020 01:32 13,9 C 12,9 C 64 % 1032,6 hPa 0,0 l/m 5,8 km/h (2 Bft) O-NO 67 7,2 C 13,9 C 8,7 km/h (2 Bft)
13.07.2020 01:30 13,9 C 12,8 C 64 % 1032,6 hPa 0,0 l/m 6,0 km/h (2 Bft) NO 45 7,2 C 13,9 C 7,9 km/h (2 Bft)
13.07.2020 01:28 13,8 C 12,5 C 64 % 1032,6 hPa 0,0 l/m 6,1 km/h (2 Bft) O-NO 67 7,1 C 13,8 C 6,3 km/h (2 Bft)
13.07.2020 01:26 13,9 C 12,8 C 64 % 1032,6 hPa 0,0 l/m 6,4 km/h (2 Bft) O-SO 112 7,2 C 13,9 C 6,9 km/h (2 Bft)
13.07.2020 01:24 13,9 C 12,7 C 65 % 1032,6 hPa 0,0 l/m 6,4 km/h (2 Bft) O-NO 67 7,4 C 13,9 C 6,9 km/h (2 Bft)
13.07.2020 01:22 13,8 C 12,3 C 65 % 1032,6 hPa 0,0 l/m 6,6 km/h (2 Bft) NO 45 7,3 C 13,7 C 7,6 km/h (2 Bft)
13.07.2020 01:20 13,9 C 12,3 C 64 % 1032,6 hPa 0,0 l/m 6,6 km/h (2 Bft) O-NO 67 7,2 C 13,8 C 8,4 km/h (2 Bft)
13.07.2020 01:18 13,9 C 12,6 C 64 % 1032,6 hPa 0,0 l/m 6,4 km/h (2 Bft) NO 45 7,2 C 13,9 C 10,3 km/h (2 Bft)
13.07.2020 01:16 14,0 C 12,7 C 64 % 1032,8 hPa 0,0 l/m 6,4 km/h (2 Bft) O-NO 67 7,3 C 14,0 C 10,3 km/h (2 Bft)
13.07.2020 01:14 14,0 C 12,7 C 64 % 1032,8 hPa 0,0 l/m 6,4 km/h (2 Bft) O-NO 67 7,3 C 14,0 C 7,1 km/h (2 Bft)
13.07.2020 01:12 14,0 C 12,9 C 64 % 1032,8 hPa 0,0 l/m 6,8 km/h (2 Bft) O-NO 67 7,3 C 13,8 C 8,2 km/h (2 Bft)
13.07.2020 01:10 14,1 C 13,0 C 64 % 1032,8 hPa 0,0 l/m 6,9 km/h (2 Bft) O-NO 67 7,4 C 13,8 C 8,2 km/h (2 Bft)
13.07.2020 01:08 14,1 C 13,0 C 64 % 1032,8 hPa 0,0 l/m 7,2 km/h (2 Bft) O 90 7,4 C 13,6 C 8,7 km/h (2 Bft)
13.07.2020 01:06 14,2 C 13,1 C 64 % 1032,8 hPa 0,0 l/m 7,6 km/h (2 Bft) O-NO 67 7,5 C 13,5 C 8,7 km/h (2 Bft)
13.07.2020 01:04 14,2 C 13,3 C 64 % 1032,8 hPa 0,0 l/m 7,9 km/h (2 Bft) NO 45 7,5 C 13,3 C 8,4 km/h (2 Bft)
13.07.2020 01:02 14,2 C 13,0 C 64 % 1032,8 hPa 0,0 l/m 7,9 km/h (2 Bft) O-NO 67 7,5 C 13,3 C 8,9 km/h (2 Bft)
13.07.2020 01:00 14,2 C 13,0 C 64 % 1032,8 hPa 0,0 l/m 7,7 km/h (2 Bft) O-NO 67 7,5 C 13,4 C 10,0 km/h (2 Bft)
13.07.2020 00:58 14,2 C 13,1 C 64 % 1032,8 hPa 0,0 l/m 8,0 km/h (2 Bft) O-NO 67 7,5 C 13,3 C 10,0 km/h (2 Bft)
13.07.2020 00:56 14,2 C 13,0 C 64 % 1032,8 hPa 0,0 l/m 7,9 km/h (2 Bft) NO 45 7,5 C 13,3 C 9,7 km/h (2 Bft)
13.07.2020 00:54 14,2 C 13,1 C 64 % 1032,8 hPa 0,0 l/m 7,9 km/h (2 Bft) O-NO 67 7,5 C 13,3 C 9,7 km/h (2 Bft)
13.07.2020 00:52 14,2 C 13,1 C 64 % 1032,8 hPa 0,0 l/m 7,7 km/h (2 Bft) O 90 7,5 C 13,4 C 9,8 km/h (2 Bft)
13.07.2020 00:50 14,3 C 13,0 C 64 % 1032,8 hPa 0,0 l/m 7,9 km/h (2 Bft) NO 45 7,6 C 13,4 C 9,8 km/h (2 Bft)
13.07.2020 00:48 14,3 C 13,1 C 64 % 1032,8 hPa 0,0 l/m 7,7 km/h (2 Bft) O-NO 67 7,6 C 13,5 C 10,5 km/h (2 Bft)
13.07.2020 00:46 14,3 C 13,1 C 64 % 1032,8 hPa 0,0 l/m 7,6 km/h (2 Bft) NO 45 7,6 C 13,6 C 10,5 km/h (2 Bft)
13.07.2020 00:44 14,4 C 13,2 C 64 % 1032,8 hPa 0,0 l/m 7,4 km/h (2 Bft) O-NO 67 7,7 C 13,8 C 9,8 km/h (2 Bft)
13.07.2020 00:42 14,4 C 13,2 C 64 % 1032,8 hPa 0,0 l/m 7,4 km/h (2 Bft) O-NO 67 7,7 C 13,8 C 9,8 km/h (2 Bft)
13.07.2020 00:40 14,4 C 13,3 C 64 % 1032,8 hPa 0,0 l/m 7,4 km/h (2 Bft) O-NO 67 7,7 C 13,8 C 8,7 km/h (2 Bft)
13.07.2020 00:38 14,4 C 13,3 C 64 % 1032,8 hPa 0,0 l/m 7,1 km/h (2 Bft) O-SO 112 7,7 C 14,0 C 6,9 km/h (2 Bft)
13.07.2020 00:36 14,4 C 13,1 C 64 % 1032,8 hPa 0,0 l/m 7,2 km/h (2 Bft) O-NO 67 7,7 C 13,9 C 8,5 km/h (2 Bft)
13.07.2020 00:32 14,5 C 13,2 C 64 % 1032,8 hPa 0,0 l/m 7,2 km/h (2 Bft) O-NO 67 7,8 C 14,0 C 8,2 km/h (2 Bft)
13.07.2020 00:30 14,5 C 13,5 C 64 % 1032,8 hPa 0,0 l/m 7,2 km/h (2 Bft) O 90 7,8 C 14,0 C 8,0 km/h (2 Bft)
13.07.2020 00:28 14,5 C 13,4 C 64 % 1032,8 hPa 0,0 l/m 6,9 km/h (2 Bft) NO 45 7,8 C 14,2 C 8,9 km/h (2 Bft)
13.07.2020 00:26 14,5 C 13,5 C 64 % 1032,8 hPa 0,0 l/m 6,8 km/h (2 Bft) O-NO 67 7,8 C 14,3 C 8,9 km/h (2 Bft)
13.07.2020 00:24 14,4 C 13,1 C 65 % 1032,8 hPa 0,0 l/m 6,4 km/h (2 Bft) O-NO 67 7,9 C 14,4 C 8,4 km/h (2 Bft)
13.07.2020 00:22 14,3 C 13,0 C 65 % 1032,8 hPa 0,0 l/m 6,0 km/h (2 Bft) O-NO 67 7,8 C 14,3 C 11,4 km/h (2 Bft)
13.07.2020 00:20 14,2 C 11,9 C 65 % 1032,8 hPa 0,0 l/m 5,6 km/h (1 Bft) O-NO 67 7,7 C 14,2 C 11,4 km/h (2 Bft)
13.07.2020 00:18 14,2 C 12,0 C 65 % 1032,8 hPa 0,0 l/m 5,5 km/h (1 Bft) O-NO 67 7,7 C 14,2 C 6,4 km/h (2 Bft)
13.07.2020 00:16 14,3 C 12,4 C 65 % 1033,0 hPa 0,0 l/m 5,3 km/h (1 Bft) O-NO 67 7,8 C 14,3 C 5,1 km/h (1 Bft)
13.07.2020 00:14 14,3 C 12,5 C 65 % 1033,0 hPa 0,0 l/m 5,3 km/h (1 Bft) O-NO 67 7,8 C 14,3 C 5,1 km/h (1 Bft)
13.07.2020 00:12 14,3 C 12,3 C 65 % 1033,0 hPa 0,0 l/m 5,1 km/h (1 Bft) O-NO 67 7,8 C 14,3 C 5,1 km/h (1 Bft)
13.07.2020 00:10 14,5 C 12,5 C 65 % 1033,0 hPa 0,0 l/m 5,3 km/h (1 Bft) O-NO 67 8,0 C 14,5 C 5,0 km/h (1 Bft)
13.07.2020 00:08 14,5 C 12,9 C 65 % 1033,0 hPa 0,0 l/m 5,5 km/h (1 Bft) O-NO 67 8,0 C 14,5 C 7,7 km/h (2 Bft)
13.07.2020 00:06 14,6 C 13,3 C 65 % 1033,0 hPa 0,0 l/m 5,5 km/h (1 Bft) O 90 8,1 C 14,6 C 7,7 km/h (2 Bft)
13.07.2020 00:04 14,5 C 13,2 C 65 % 1033,0 hPa 0,0 l/m 5,5 km/h (1 Bft) O-NO 67 8,0 C 14,5 C 6,0 km/h (2 Bft)
13.07.2020 00:02 14,5 C 13,2 C 65 % 1033,0 hPa 0,0 l/m 5,5 km/h (1 Bft) O-NO 67 8,0 C 14,5 C 4,8 km/h (1 Bft)
13.07.2020 00:00 14,4 C 12,8 C 65 % 1033,0 hPa 0,0 l/m 5,5 km/h (1 Bft) O-NO 67 7,9 C 14,4 C 6,4 km/h (2 Bft)
_ Min-Zeit 06:02 05:54 11:10 11:18 - 06:04 - - 05:34 06:02 05:42
Minimum _ 9,8 C 7,3 C 46 % 1029,8 hPa - 0,0 km/h (0 Bft) - - 4,7 C 9,8 C 0,0 km/h (0 Bft)
_ Max-Zeit 11:14 11:20 06:56 00:00 00:00 03:10 - - 09:48 11:04 11:16
Maximum _ 21,6 C 24,6 C 76 % 1033,0 hPa 0,0 l/m 9,0 km/h
O-NO (2 Bft)
- - 11,1 C 21,4 C 17,7 km/h
S-SO (3 Bft)
Durchschnitt _ 14,6 C 13,2 C 64 % 1031,0 hPa #0,0 l/m 5,0 km/h (1 Bft) O-NO - 7,7 C 14,4 C 6,9 km/h (2 Bft)